Regional Weather Roundup
Issued by NWS

Home | Current Version | Previous Version | Graphics & Text | Print | Product List | Glossary On
Versions: 1 2 3 4 5 6 7 8 9 10 11 12 13 14 15 16 17 18 19 20 21 22 23 24 25 26 27 28 29 30 31 32 33 34 35 36 37 38 39 40 41 42 43 44 45 46 47 48 49 50
000
ASUS44 KMEG 011000
RWRTN
TENNESSEE HOURLY STATE WEATHER ROUNDUP
NATIONAL WEATHER SERVICE MEMPHIS TN
400 AM CST SUN MAR 01 2015

TNZ002-004-019-021-049-052-054-088>092-011100-
WEST TENNESSEE

CITY           SKY/WX    TMP DP  RH WIND       PRES   REMARKS
MEMPHIS INTL   CLOUDY    37  24  59 NE6       30.32S WCI  32
NWS MEMPHIS      N/A     36 N/A N/A MISG        N/A
JACKSON        CLOUDY    39  25  57 E3        30.33F
DYERSBURG      CLOUDY    34  16  47 NE6       30.36F WCI  29
UNION CITY     CLOUDY    32  27  80 NE3       30.33S
PARIS          CLOUDY    34  23  64 E6        30.33F WCI  29
LEXINGTON      CLOUDY    37  25  60 E5        30.32F WCI  34
SAVANNAH       CLOUDY    41  36  81 CALM      30.34S
$$

TNZ008-025-027-028-033-062-065-066-011100-
NORTH MIDDLE TENNESSEE

CITY           SKY/WX    TMP DP  RH WIND       PRES   REMARKS
NASHVILLE      CLOUDY    42  31  64 CALM      30.37R
CLARKSVILLE    CLOUDY    35  28  75 E3        30.36F
COOKEVILLE     PTCLDY    43  34  70 SW5       30.37R
CROSSVILLE     CLOUDY    42  33  70 S10G20    30.35F
$$

TNZ061-075-076-078-094-096-097-011100-
SOUTH MIDDLE TENNESSEE

CITY           SKY/WX    TMP DP  RH WIND       PRES   REMARKS
FAYETTEVILLE   CLOUDY    45  34  65 S9          N/A
TULLAHOMA      MOCLDY    41  32  70 CALM      30.37R
WINCHESTER     MOCLDY    43  36  75 SE10      30.35F
COLUMBIA         N/A     48  39  71 S6        30.33R
SHELBYVILLE    CLOUDY    46  36  66 S6        30.36S
$$

TNZ017-018-042-046-047-011100-
NORTHEAST TENNESSEE

CITY           SKY/WX    TMP DP  RH WIND       PRES   REMARKS
TRI CITIES     CLOUDY    34  26  72 CALM      30.42S
ELIZABETHTON   CLOUDY    36  27  69 E5        30.42R WCI  32
$$

TNZ012-013-036-069-073-074-011100-
CENTRAL EAST TENNESSEE

CITY           SKY/WX    TMP DP  RH WIND       PRES   REMARKS
KNOXVILLE      PTCLDY    33  27  78 CALM      30.42S
OAK RIDGE      CLOUDY    42  29  59 SW5       30.43S
GATLINBURG     SUNNY     27  25  93 CALM      30.42S
$$

TNZ083-085-099-011100-
SOUTHEAST TENNESSEE

CITY           SKY/WX    TMP DP  RH WIND       PRES   REMARKS
CHATTANOOGA    MOCLDY    43  30  60 S7        30.44S
$$

SKY/WX REPORTED AS FAIR MEANS FEW OR NO CLOUDS BELOW
12 THOUSAND FEET.



USA.gov is the U.S. government's official web portal to all federal, state and local government web resources and services.